Powrót do katalogu

STARLINK-35686

AktywnyŁącznośćVLEO
NORAD 66407·PAYLOAD·🇺🇸 United States

Wystrzelony Nov 8, 2025 z Cape Canaveral Space Force Station

Loading…

Następne Przeloty (najbliższe 24 godziny)

TLE

ŚwieżeSource: CelesTrak SupGP

Epoka: Sep 15, 2026, 04:14 UTC

1 66407C 25257AD  26258.17687500  .00005867  00000+0  17339-3 0  2580
2 66407  53.1596  52.5122 0001097  88.6102   5.1053 15.34380137    13

Śledź STARLINK-35686 w czasie rzeczywistym z AllMySat

Download on the App Store